www.pogodaiklimat.ru

Погода и климат >> Архив погоды >> Индия >> Пондичерри >> Пондичерри


ПОГОДА в Пондичерри

  • Прогноз погоды в Пондичерри
  • Монитор погоды в Пондичерри

АРХИВ ПОГОДЫ в Пондичерри

Время (UTC), дата Ветер
(напр.,м/с)
 
Видим.   Явления Облачность Т
(С)
Тd
(С)
f
(%)
Тe
(С)
Тes
(С)
Комфортность P
(гПа)
Po
(гПа)
Тmin
(С)
Tmax
(С)
R
(мм)
R24
(мм)
S
(см)
06 17.02 Ю 1 10 км 4/1 600 м
[Sc Ci fib]
+33.0 +21.2 50 +41 +58 опасность
перегрева
1013.2 1008.9
09 17.02 С 1 10 км 3/0
[Ci fib]
+32.0 +23.3 60 +43 +56 опасность
перегрева
1009.8 1005.5
12 17.02 ЮВ 2 10 км 4/0
[Ci fib]
+29.0 +24.1 75 +40 +41 очень
душно
1008.8 1004.5 +33.7
15 17.02 ЮВ 1 4000 м 6/3 600 м
[Sc Ci fib]
+28.0 +25.2 85 +41 +41 опасность
перегрева
1010.8 1006.5
18 17.02 штиль 0 4000 м 8/3 600 м
[Sc Ac trans Ci fib]
+27.4 +25.4 89 +40 +40 очень
душно
1011.8 1007.5
21 17.02 штиль 0 4000 м 6/4 600 м
[Sc Ci fib]
+27.2 +25.2 89 +39 +39 очень
душно
1010.0 1005.7
00 18.02 штиль 0 4000 м 5/3 600 м
[Sc Ci fib]
+26.4 +25.0 92 +38 +38 очень
душно
1010.9 1006.3
03 18.02 штиль 0 10 км 3/0
[Ci fib]
+27.8 +25.2 86 +40 +48 очень
душно
1013.0 1008.7 +26.0 +33.7
06 18.02 Ю 1 10 км 5/3 600 м
[Sc diur, vesp Ci fib]
+31.8 +25.3 69 +46 +60 опасность
перегрева
1012.9 1008.7
09 18.02 Ю 2 10 км 4/1 600 м
[Sc diur, vesp Ci fib]
+32.0 +23.3 60 +43 +54 опасность
перегрева
1009.3 1005.1
12 18.02 Ю 1 10 км 4/1 600 м
[Sc diur, vesp Ci fib]
+29.0 +23.8 74 +40 +40 очень
душно
1008.4 1004.1 +32.5
15 18.02 Ю 1 4000 м 5/4 600 м
[Sc Ci fib]
+27.6 +23.8 80 +38 +38 очень
душно
1010.7 1006.4
18 18.02 ЮЗ 1 4000 м 8/6 600 м
[Sc Ci fib]
+27.6 +24.7 84 +39 +39 очень
душно
1011.4 1007.1
21 18.02 штиль 0 4000 м 9/8 600 м
[Sc Ci fib]
+27.4 +25.7 90 +40 +40 очень
душно
1010.1 1005.8
00 19.02 штиль 0 4000 м 9/5 600 м
[Sc Ac trans Ci sp]
+26.6 +24.0 86 +37 +37 очень
душно
1010.0 1005.7
03 19.02 Ю 1 10 км 8/5 600 м
[Sc Ac trans Ci fib]
+28.0 +24.3 80 +39 +42 очень
душно
1013.1 1008.8 +26.1 +32.5
06 19.02 Ю 1 10 км 8/5 600 м
[Sc Ci fib]
+30.8 +23.9 67 +42 +52 опасность
перегрева
1013.6 1009.3
09 19.02 ЮВ 1 10 км 4/3 600 м
[Sc Ci fib]
+31.6 +23.5 62 +42 +52 опасность
перегрева
1011.0 1006.7
12 19.02 В 1 10 км 8/5 600 м
[Cu Sc Ci fib]
+29.0 +23.2 71 +39 +39 очень
душно
1011.3 1007.0 +32.6
15 19.02 штиль 0 4000 м 6/4 600 м
[Sc Ci fib]
+28.0 +23.7 77 +38 +38 очень
душно
1013.9 1009.6
18 19.02 Ю 1 4000 м 6/4 600 м
[Sc Ci fib]
+27.2 +23.1 78 +36 +36 очень
душно
1014.7 1010.3
21 19.02 штиль 0 4000 м 5/4 600 м
[Sc Ci fib]
+26.4 +23.5 84 +36 +36 очень
душно
1013.4 1009.1
00 20.02 С 1 4000 м 8/5 600 м
[Sc Ci fib]
+25.0 +22.0 83 +32 +32 очень
душно
1014.0 1009.7
03 20.02 штиль 0 10 км 8/5 600 м
[Sc Ci fib]
+25.2 +23.7 91 +34 +38 очень
душно
1016.5 1012.1 +24.2 +32.6
06 20.02 СВ 1 10 км 6/5 600 м
[Sc diur, vesp Ci fib]
+31.0 +22.9 62 +41 +51 опасность
перегрева
1016.7 1012.4
09 20.02 Ю 2 10 км 6/4 600 м
[Sc Ci fib]
+31.4 +23.6 63 +42 +50 опасность
перегрева
1013.8 1009.6
12 20.02 ЮВ 1 10 км 3/1 600 м
[Sc Ci fib]
+29.0 +23.2 71 +39 +39 очень
душно
1013.5 1009.2 +32.4
15 20.02 штиль 0 4000 м 5/3 600 м
[Sc Ci fib]
+27.4 +23.0 77 +37 +37 очень
душно
1015.8 1011.4
18 20.02 штиль 0 4000 м 3/0
[Ci fib]
+26.2 +22.7 81 +35 +35 очень
душно
1016.9 1012.5
21 20.02 СЗ 1 4000 м 4/3 600 м
[Sc Ci fib]
+24.0 +22.5 91 +31 +31 очень
душно
1015.8 1011.4
00 21.02 С 1 4000 м 3/0
[Ci fib]
+23.6 +22.1 91 +30 +30 очень
душно
1015.8 1011.4
03 21.02 С 1 10 км 8/6 600 м
[Sc diur, vesp Ci fib]
+24.8 +22.4 87 +32 +35 очень
душно
1018.3 1013.9 +22.8 +32.4
06 21.02 С 1 10 км 4/3 600 м
[Sc diur, vesp Ci fib]
+32.0 +21.7 55 +41 +55 опасность
перегрева
1018.0 1013.7
09 21.02 СВ 2 10 км 3/1 600 м
[Sc diur, vesp Ci fib]
+32.6 +21.4 52 +41 +52 опасность
перегрева
1015.4 1011.1
12 21.02 С 2 10 км 1/0
[Ci fib]
+29.0 +19.5 57 +35 +35 очень
душно
1014.8 1010.4 +32.9
15 21.02 штиль 0 4000 м 1/0
[Ci fib]
+26.2 +21.1 74 +33 +33 очень
душно
1016.5 1012.1
18 21.02 штиль 0 4000 м 5/4 600 м
[Sc Ci fib]
+25.0 +19.8 73 +31 +31 очень
душно
1016.6 1012.2
21 21.02 С 1 4000 м 1/1 600 м
[Sc]
+23.2 +19.5 80 +30 +30 очень
душно
1015.3 1010.9
00 22.02 С 1 4000 м 1/1 600 м
[Sc]
+22.0 +18.8 82 +27 +27 душно 1014.8 1010.3
03 22.02 С 1 10 км 1/1 600 м
[Sc]
+23.4 +21.3 88 +31 +38 очень
душно
1016.5 1012.2 +21.6 +32.9
06 22.02 С 1 10 км 1/1 600 м
[Sc]
+31.2 +19.3 49 +37 +56 опасность
солнечного
удара
1016.8 1012.5
09 22.02 С 1 10 км 1/1 600 м
[Sc]
+33.0 +19.0 44 +38 +52 опасность
солнечного
удара
1013.3 1009.1
12 22.02 СВ 2 10 км 1/1 600 м
[Sc]
+29.4 +20.0 57 +36 +36 очень
душно
1012.4 1008.1 +33.0
15 22.02 штиль 0 4000 м 4/3 600 м
[Sc Ci fib]
+26.0 +21.5 76 +33 +33 очень
душно
1013.2 1008.9
18 22.02 штиль 0 4000 м 3/3 600 м
[Sc]
+23.4 +21.3 88 +31 +31 очень
душно
1014.3 1010.0
21 22.02 штиль 0 4000 м 3/3 600 м
[Sc]
+23.0 +19.9 83 +30 +30 очень
душно
1012.6 1008.2
00 23.02 С 1 4000 м 1/1 600 м
[Sc]
+21.0 +19.4 91 +27 +27 душно 1012.2 1007.8
03 23.02 С 1 10 км 3/0
[Ci fib]
+23.0 +18.2 74 +29 +35 очень
душно
1014.0 1009.6 +20.6 +33.0
06 23.02 СЗ 1 10 км 6/4 600 м
[Sc Ci fib]
+32.0 +18.1 44 +37 +49 очень
душно
1013.9 1009.7
09 23.02 штиль 0 10 км 3/0
[Ci fib]
+33.0 +21.9 52 +41 +58 опасность
перегрева
1011.2 1007.0
12 23.02 штиль 0 10 км 3/0
[Ci fib]
+29.0 +21.6 64 +37 +37 очень
душно
1010.7 1006.4 +33.4
15 23.02 штиль 0 4000 м 3/1 600 м
[Sc Ci fib]
+26.0 +21.5 76 +33 +33 очень
душно
1012.0 1007.7
18 23.02 СЗ 1 4000 м 1/0
[Ci fib]
+24.4 +22.3 88 +32 +32 очень
душно
1012.8 1008.5
21 23.02 СЗ 1 4000 м 3/0
[Ci fib]
+23.4 +21.9 91 +32 +32 очень
душно
1010.7 1006.4
00 24.02 штиль 0 4000 м 3/1 600 м
[Sc Ci fib]
+23.0 +21.5 91 +31 +31 очень
душно
1010.8 1006.4
03 24.02 СЗ 1 10 км 3/1 600 м
[Sc Ci fib]
+25.0 +22.0 83 +32 +38 очень
душно
1012.6 1008.2 +22.5 +33.4

 

Местоположение метеостанции Пондичерри (Пондичерри, Индия): широта 11.97 долгота 79.82 высота над уровнем моря 38 м.

В архиве по умолчанию представлена погода в Пондичерри за последнюю неделю. Архивные данные за месяц целиком и за предыдущие месяцы, начиная с января 2011 года, Вы можете получить, выбрав интересующий диапазон дат из раскрывающегося списка и нажав кнопку "Ввод!".


*Определитесь, кто Вы:
робот инопланетянин человек

Внимание! Время в таблицах - всемирное. Для получения местного времени необходимо прибавить поправку, которая равна 5.5 ч.

Смотрите также архив погоды в соседних городах и на ближайших метеорологических станциях:

Погода в Куддалоре (Тамилнад, Индия) (23 км)
Погода в Парангипеттае (Тамилнад, Индия) (53 км)
Погода в Карайкале (Пондичерри, Индия) (117 км)
Погода в Ченнаи аэропорту (Тамилнад, Индия) (121 км)
Погода в Веллоре (Тамилнад, Индия) (128 км)
Погода в Ченнаи (Тамилнад, Индия) (129 км)
Погода в Нагапаттинаме (Тамилнад, Индия) (134 км)
Погода в Терутани (Тамилнад, Индия) (135 км)
Погода в Тирупатчере (Тамилнад, Индия) (147 км)
Погода в Танджавуре (Тамилнад, Индия) (152 км)

Пояснения к столбцам:

Ветер - указаны скорость ветра в м/с - средняя за 10 мин, порывы в срок и между сроками (в фигурных скобках) и направление, откуда дует ветер: С - северный, СВ - северо-восточный, В - восточный, ЮВ - юго-восточный, Ю - южный, ЮЗ - юго-западный, З - западный, СЗ - северо-западный.
Видимость - горизонтальная дальность видимости в метрах или километрах. При видимости от 1 до 10 км при отсутствии осадков обычно наблюдается дымка, при ухудшении видимости до 1 км и менее - туман. В сухую погоду видимость может ухудшаться дымом, пылью или мглою.
Явления - указаны атмосферные явления, наблюдавшиеся в срок или в последний час перед сроком; фигурными скобками обозначены явления, наблюдавшиеся между сроками (за 1-3 часа до срока); квадратными скобками обозначены град или гололедные отложения с указанием их диаметра в мм.
Облачность - указаны через наклонную черту общая и нижняя облачность в баллах и высота нижней границы облаков в метрах; квадратными скобками обозначены формы облаков: Ci - перистые, Cs - перисто-слоистые, Cc - перисто-кучевые, Ac - высококучевые, As - высокослоистые, Sc - слоисто-кучевые, Ns - слоисто-дождевые, Cu - кучевые, Cb - кучево-дождевые. Подробнее классификацию облаков см. в Атласе облаков (PDF).
T - Температура воздуха - температура, измеренная на высоте 2 м над землей.
Td - Температура точки росы - температура, при понижении до которой содержащийся в воздухе водяной пар достигнет насыщения.
f - Относительная влажность воздуха - влажноcть воздуха, измеренная на высоте 2 м над землей.
Te - Эффективная температура - температура, которую ощущает одетый по сезону человек в тени. Характеристика душности погоды. При расчете учитывается влияние влажности воздуха и скорости ветра на теплоощущения человека.
Tes - Эффективная температура на солнце - температура, которую ощущает человек, с поправкой на солнечный нагрев. Характеристика знойности погоды. Зависит от высоты солнца над горизонтом, облачности и скорости ветра. Ночью, в пасмурную погоду, а также при ветре 12 м/с и более поправка равна нулю.
P - Атмосферное давление - приведенное к уровню моря атмосферное давление.
Po - Атмосферное давление - измеренное на уровне метеостанции атмосферное давление.
Tmin - Минимальная температура - минимум температуры воздуха на высоте 2 м над землей.
Tmax - Максимальная температура - максимум температуры воздуха на высоте 2 м над землей.
R - Количество осадков - Количество выпавших осадков за период времени, мм. При наведении курсора мыши на число - период времени, за который выпало указанное количество осадков.
R24 - Количество осадков - Количество выпавших осадков за 24 часа, мм.
S - Снежный покров - Высота снежного покрова, см. При наведении курсора мыши на число - состояние снежного покрова и степень покрытия местности в баллах.